Temperature
24 22 21 21 21 21 20 20 20 19 19 19 18 18 18 18 18 18 17 17 17 17 17 17 17 17 17 17 17 17 17 17 17 17 18 18 18 17 17 17 17 17 17
24 22 21 21 21 21 21 20 20 19 19 19 18 18 18 18 18 18 18 17 17 17 17 17 17 17 17 17 17 17 17 17 17 17 18 18 18 18 18 17 17 17 17
25 23 22 21 21 21 21 20 20 20 19 19 18 18 18 18 18 18 18 18 18 17 17 17 17 17 17 17 17 17 17 17 17 17 18 18 19 18 18 17 17 17 17
25 23 22 22 21 21 21 20 20 20 19 19 18 18 18 18 18 18 18 18 18 18 17 17 17 17 17 17 17 17 17 17 17 17 17 17 18 18 18 18 18 17 17
25 24 23 22 22 21 21 20 20 20 20 19 19 19 18 18 18 18 18 18 18 17 17 18 17 18 17 17 17 17 17 17 17 17 17 17 17 17 17 17 17 17 17
25 24 23 22 21 21 21 21 21 20 20 20 19 19 19 18 18 18 18 17 17 17 17 17 17 17 17 17 17 17 17 17 17 17 17 17 17 17 17 17 17 17 17
25 24 23 22 21 21 21 21 21 21 20 20 20 19 19 19 18 18 18 18 18 17 17 17 18 17 18 17 17 17 17 17 17 17 17 17 17 17 17 17 17 16 16
26 24 23 22 22 21 21 21 21 21 20 20 20 19 19 18 18 18 18 17 17 17 17 17 17 17 17 17 17 17 17 17 17 17 17 17 17 17 17 17 16 16 16
26 25 24 23 22 22 21 21 21 21 20 20 20 19 19 19 18 18 18 17 18 17 17 17 17 17 17 17 17 17 17 17 17 17 17 17 17 16 16 16 16 16 16
26 25 24 23 22 22 21 21 21 20 20 20 20 19 19 19 19 18 18 18 18 18 17 17 17 17 17 17 17 17 17 17 17 17 17 17 16 16 16 16 16 16 16
26 25 24 23 22 22 21 21 21 20 20 20 20 19 19 19 19 18 18 18 18 18 17 17 17 17 17 17 17 17 16 16 16 16 16 16 16 16 16 16 16 15 15
26 25 24 23 23 22 21 21 21 20 20 20 20 20 19 19 18 18 18 18 18 17 17 17 17 17 17 17 17 16 16 16 16 16 16 16 16 16 16 16 15 15 15
26 25 24 23 23 22 22 21 21 20 20 20 20 20 19 19 19 18 18 18 18 17 17 17 17 17 17 17 16 16 16 16 16 16 16 16 16 15 15 15 15 15 15
25 25 24 23 23 22 22 21 21 20 20 20 20 20 19 19 19 18 18 18 18 17 17 17 17 16 16 16 16 16 16 16 16 16 15 15 15 15 15 15 15 15 14
24 24 24 23 23 22 22 22 21 21 20 20 19 19 19 19 19 18 18 18 18 17 17 17 17 16 16 16 16 16 15 15 15 15 15 15 15 15 15 14 14 14 14
24 24 23 23 23 22 22 22 21 21 21 20 20 19 19 19 19 18 18 18 17 17 17 17 16 16 16 16 16 16 15 15 15 15 15 14 15 15 15 14 14 14 14
24 23 23 23 22 22 22 22 22 21 21 20 20 19 19 19 18 18 18 17 17 17 17 16 16 16 16 16 16 15 15 15 15 14 14 14 14 14 14 14 14 14 13
24 23 23 23 22 22 22 22 21 21 20 20 20 20 19 19 18 18 18 17 17 17 17 16 16 16 16 16 15 15 15 14 14 14 14 14 14 14 14 13 13 13 13
22 22 22 23 22 22 22 22 21 21 20 20 19 19 19 18 18 18 17 17 17 17 16 16 16 15 15 15 15 15 14 14 14 14 14 13 13 13 13 13 13 13 13
21 22 22 22 22 21 21 21 21 20 20 19 19 19 19 18 18 17 17 17 17 16 16 16 15 15 15 15 15 14 14 14 13 13 13 13 13 13 13 12 12 12 12
20 21 21 21 21 21 21 20 20 20 19 19 19 18 18 18 17 17 17 17 16 16 16 16 15 15 15 15 14 14 14 13 13 13 13 13 13 12 12 12 12 12 11
20 20 20 20 20 20 20 19 19 19 19 19 18 18 18 17 17 17 16 16 16 15 15 15 15 14 14 14 14 14 14 13 13 12 12 12 12 12 12 12 12 11 11
19 19 19 19 19 19 19 18 18 18 18 18 18 18 17 17 17 16 16 16 15 15 15 14 14 14 14 14 14 13 13 13 12 12 12 12 12 12 11 11 11 11 10
18 18 18 18 18 18 18 18 18 18 18 17 17 17 17 16 16 16 15 15 15 14 14 14 14 13 13 13 13 13 13 12 12 12 11 11 11 11 11 10 10 10 10
18 18 18 18 17 18 18 18 18 18 17 17 17 16 16 16 15 15 15 15 14 14 14 14 13 13 13 13 13 12 12 12 11 11 11 10 10 10 10 10 10 9 9
17 17 17 17 17 17 17 17 17 17 16 16 16 16 15 15 15 15 14 14 14 14 14 13 13 13 13 12 12 12 12 11 11 11 10 10 10 10 10 9 9 9 9
Wind_Speed
10 10 11 11 11 10 11 11 11 10 8 6 6 5 5 5 4 5 5 6 6 6 5 5 4 5 4 4 5 4 5 5 3 3 3 4 5 4 4 4 4 4 5
10 10 11 11 12 12 12 12 12 11 10 7 5 4 3 4 4 4 4 6 6 6 6 5 5 5 4 5 5 4 4 4 4 4 4 4 4 4 4 4 4 4 4
11 12 12 12 12 12 12 11 12 11 10 9 6 5 4 4 5 5 5 6 6 7 6 5 6 5 6 5 5 6 6 5 5 5 4 3 3 2 2 3 3 3 3
11 11 12 12 12 12 11 11 11 11 11 10 8 8 6 6 5 5 4 5 6 6 7 6 6 6 6 4 6 6 5 6 6 5 5 5 4 3 2 3 3 3 3
11 11 11 11 11 11 10 10 11 11 11 10 9 9 8 6 5 5 5 5 5 6 6 6 5 5 6 5 5 4 6 6 7 6 5 5 5 6 5 4 3 3 2
10 10 10 11 10 10 10 10 11 10 10 11 10 10 9 7 6 5 5 5 4 4 5 5 4 5 5 5 5 5 7 6 6 6 5 5 5 5 5 5 5 4 3
10 10 11 12 11 11 11 11 11 11 11 11 10 9 8 8 8 7 6 5 4 4 5 4 4 4 4 5 5 5 6 6 6 7 6 6 6 5 5 5 5 4 3
10 10 11 12 12 12 11 11 11 10 10 10 9 8 7 7 6 6 5 5 4 4 3 4 3 4 4 5 4 5 5 5 6 7 6 5 5 5 5 5 5 5 4
10 10 11 11 12 11 11 11 10 10 9 9 9 8 7 7 6 5 6 5 4 4 4 4 4 4 4 4 4 4 4 4 5 5 5 5 4 5 4 4 5 5 5
10 10 10 11 11 11 10 10 10 9 9 9 8 7 8 7 6 5 5 4 4 4 4 4 4 4 4 4 4 4 3 4 4 3 3 4 4 3 4 4 5 6 5
10 10 10 10 11 11 11 10 10 9 8 8 8 7 7 7 6 5 5 5 4 4 4 3 3 3 3 3 3 3 3 3 3 3 3 3 3 3 3 4 4 4 4
9 10 11 11 11 11 11 11 10 10 9 8 8 7 7 7 6 6 5 5 5 4 4 3 3 3 2 2 3 3 3 3 4 3 3 3 3 3 3 3 3 3 3
9 10 11 11 11 11 11 11 10 10 9 9 8 8 8 7 7 6 5 5 4 4 3 3 3 2 2 2 2 2 2 2 2 2 2 2 2 3 2 3 3 2 2
9 10 11 11 11 11 10 10 10 9 9 9 9 8 8 7 6 6 5 5 4 4 4 3 2 2 1 1 1 1 1 1 1 1 1 1 1 1 1 1 1 2 2
9 10 11 10 11 11 10 10 10 10 9 9 9 8 7 7 6 6 5 5 4 4 3 3 3 2 2 0 1 1 1 1 0 0 1 1 3 3 1 1 1 2 3
8 9 10 10 11 11 11 10 10 10 10 9 9 8 8 7 7 6 6 5 4 4 3 3 2 2 1 4 3 2 1 0 1 1 1 2 3 4 3 3 2 1 3
7 8 9 9 9 10 10 11 10 10 10 10 9 9 9 8 8 7 7 6 5 4 4 3 3 3 4 4 2 2 1 1 1 1 1 1 2 2 2 3 3 2 2
5 7 7 8 9 9 10 10 11 11 10 10 9 9 9 8 8 7 7 6 5 5 4 3 3 3 4 4 2 1 1 2 2 1 1 1 1 2 2 2 2 3 3
3 4 6 7 8 9 9 10 11 11 10 9 9 9 9 8 8 7 7 6 5 5 4 4 3 3 4 4 2 2 2 2 2 2 2 1 2 4 2 2 3 3 3
1 2 4 6 7 8 9 10 10 10 10 9 9 8 8 8 8 8 7 6 5 5 5 4 4 3 3 4 2 3 2 2 2 2 2 4 3 3 2 1 3 3 3
2 2 3 5 6 7 8 8 8 8 8 8 8 8 8 8 8 7 7 6 6 6 5 5 4 4 3 5 3 2 2 2 2 2 1 3 5 3 2 1 1 2 2
4 3 4 4 5 6 6 6 7 7 7 8 9 8 8 7 7 7 6 6 6 6 6 5 4 4 4 3 4 2 1 2 2 1 1 3 5 3 1 1 3 1 2
4 3 4 4 4 4 4 5 5 6 7 8 8 9 8 7 7 8 7 6 6 5 5 5 5 4 4 5 6 5 3 0 1 2 5 4 5 5 4 3 2 3 2
3 2 3 3 4 4 4 4 4 6 7 7 8 8 8 7 7 6 6 6 6 5 5 5 4 4 4 4 4 5 5 5 4 3 5 6 4 3 3 4 4 2 1
3 2 2 2 3 3 3 3 4 5 6 6 6 6 7 7 6 5 3 4 3 3 3 4 4 4 4 3 2 3 4 4 3 4 4 4 4 4 4 3 3 2 3
2 2 2 2 2 2 2 2 3 4 5 6 6 5 5 5 6 6 4 5 3 5 5 3 1 3 4 6 4 2 2 3 3 4 4 4 4 4 3 3 3 3 3
Wind_Direction
192 190 193 196 194 192 193 193 194 187 189 193 202 203 203 200 207 214 206 211 214 208 222 236 209 226 221 227 226 226 223 226 224 241 236 231 229 223 220 228 230 211 212
188 187 193 194 196 193 195 193 192 191 196 194 200 209 210 211 209 220 210 217 214 220 220 226 230 225 225 225 228 226 243 242 222 241 249 241 221 210 218 218 221 231 219
194 189 192 194 195 194 195 194 191 191 197 194 196 197 199 216 215 216 212 218 217 222 235 229 238 235 235 227 228 232 234 240 237 239 251 259 250 237 202 210 222 228 237
197 192 190 192 194 194 191 189 189 191 192 192 202 207 213 220 219 222 218 217 222 227 228 233 236 240 246 239 238 233 239 242 244 233 241 258 279 265 241 223 207 210 230
195 192 189 189 189 188 186 185 186 190 191 196 204 212 222 225 221 217 214 226 223 227 228 228 234 235 244 245 254 253 247 241 245 242 235 239 241 245 251 252 245 235 238
186 185 183 182 183 183 183 182 183 189 191 197 206 214 220 219 221 221 221 224 223 224 225 229 233 239 246 241 241 245 241 246 246 250 245 242 244 242 246 251 250 249 250
177 176 179 180 181 182 183 183 184 189 192 197 205 210 213 213 217 224 219 229 231 223 219 230 231 239 241 243 241 239 246 244 242 246 250 249 251 252 249 248 256 259 258
171 174 177 178 181 183 184 185 187 189 190 196 200 205 208 215 217 217 229 226 237 239 231 225 231 237 237 238 239 243 244 245 246 248 253 254 252 251 249 252 250 253 254
168 171 173 177 179 183 185 185 186 188 189 193 194 196 201 213 220 217 223 226 228 233 222 223 227 235 236 237 236 243 248 253 255 253 246 251 248 245 249 249 245 248 252
170 171 173 175 175 177 177 180 182 185 187 189 193 192 197 204 213 220 219 224 228 232 223 219 220 227 231 229 232 238 246 253 260 266 264 258 257 253 246 244 246 243 245
174 173 172 172 171 171 171 174 178 182 184 187 188 190 191 196 203 206 210 213 218 214 212 213 219 225 232 236 233 243 245 254 262 262 249 245 257 256 254 249 244 241 233
172 170 169 169 172 172 172 174 178 181 181 181 181 183 185 191 194 196 200 200 202 204 200 207 215 222 224 232 244 255 255 259 266 269 264 256 245 246 257 253 245 239 224
171 169 169 172 175 174 175 175 179 179 178 176 178 179 183 186 190 187 187 189 189 192 191 196 200 204 217 230 246 267 271 260 267 273 270 270 260 253 250 252 243 216 198
173 174 173 177 176 173 174 176 178 176 176 176 178 179 181 181 180 178 177 177 179 182 182 183 185 190 192 223 253 265 271 262 271 282 288 291 295 296 267 234 213 185 178
177 179 180 177 176 175 175 175 175 174 176 177 177 176 173 171 171 171 171 169 171 174 170 173 176 182 191 221 284 253 231 240 271 39 22 53 59 40 351 275 202 186 191
186 184 182 178 179 178 178 175 176 174 175 178 177 171 169 169 168 167 165 164 166 164 165 173 175 167 132 74 33 320 205 128 85 72 60 98 94 82 77 59 59 163 194
195 191 188 185 181 181 181 179 175 173 176 176 173 171 173 172 171 169 165 168 169 164 162 160 151 134 99 92 78 349 305 118 87 68 39 43 68 76 99 110 123 102 105
202 194 190 184 180 179 179 178 174 174 174 173 171 169 172 171 170 169 167 167 168 164 161 156 148 136 114 112 113 283 172 98 84 66 55 61 74 55 53 109 104 90 80
205 193 194 184 176 175 174 174 174 172 172 172 172 172 171 169 170 170 167 167 168 166 159 152 149 146 130 124 139 257 160 127 106 79 55 44 85 61 12 126 117 106 95
152 176 180 170 165 168 169 172 175 173 177 176 172 170 171 173 175 172 170 169 170 165 160 150 153 154 143 131 155 253 194 158 149 123 110 77 64 71 9 150 140 133 119
77 120 147 156 158 161 167 173 173 176 174 168 165 166 171 176 173 169 170 169 171 167 165 153 149 146 139 142 152 252 230 190 182 172 148 102 92 82 44 331 105 98 128
68 92 116 125 136 151 166 171 171 169 168 165 164 164 168 171 167 165 165 169 171 168 166 163 165 162 156 138 142 146 261 310 182 176 141 106 115 110 82 85 80 98 219
64 82 105 115 121 137 161 169 163 165 169 167 167 165 165 165 165 168 167 168 174 182 179 180 182 175 162 142 138 147 143 345 192 115 83 108 147 160 141 132 162 206 185
50 69 92 109 119 130 143 151 156 167 168 169 168 164 161 161 163 170 174 175 179 185 187 187 185 174 167 162 157 160 159 163 170 159 141 154 170 179 126 159 182 197 176
23 42 78 100 109 119 121 131 155 168 167 165 162 161 162 160 161 160 155 176 174 180 189 185 182 181 178 142 115 181 177 182 171 176 183 185 183 185 181 180 179 181 178
31 47 62 82 94 109 116 132 156 169 172 169 165 164 163 165 166 158 145 68 77 92 89 66 97 129 111 122 133 143 125 132 163 200 198 198 202 203 199 196 190 193 199
Height
1537 1539 1541 1543 1544 1546 1548 1549 1551 1553 1555 1556 1558 1559 1561 1562 1563 1564 1564 1565 1566 1567 1568 1570 1570 1570 1572 1572 1573 1573 1573 1574 1575 1575 1575 1575 1575 1575 1575 1575 1575 1576 1576
1535 1536 1538 1540 1541 1543 1545 1547 1549 1551 1553 1554 1556 1557 1559 1561 1562 1562 1563 1564 1565 1566 1568 1568 1568 1569 1569 1570 1570 1570 1571 1573 1573 1574 1574 1573 1574 1573 1573 1573 1573 1573 1574
1531 1533 1535 1537 1539 1541 1543 1545 1547 1549 1551 1553 1555 1556 1557 1559 1560 1561 1562 1562 1563 1564 1565 1566 1567 1567 1568 1568 1568 1568 1569 1570 1571 1571 1572 1572 1571 1571 1571 1570 1570 1570 1571
1528 1531 1533 1535 1537 1539 1541 1542 1544 1546 1548 1550 1552 1554 1556 1557 1558 1559 1560 1561 1562 1562 1563 1564 1564 1564 1565 1566 1566 1567 1567 1567 1568 1569 1568 1569 1569 1569 1569 1569 1568 1568 1568
1525 1528 1530 1532 1535 1537 1539 1540 1542 1544 1546 1548 1550 1552 1554 1555 1557 1557 1558 1559 1560 1560 1561 1561 1562 1562 1563 1563 1563 1564 1564 1565 1565 1566 1566 1566 1566 1566 1566 1566 1566 1566 1566
1523 1526 1528 1531 1533 1535 1537 1538 1540 1542 1543 1545 1547 1549 1551 1552 1554 1555 1556 1557 1558 1558 1559 1559 1559 1559 1560 1560 1560 1560 1561 1561 1561 1562 1562 1563 1563 1563 1563 1563 1563 1563 1563
1521 1524 1526 1528 1530 1533 1535 1536 1538 1540 1542 1543 1545 1547 1548 1550 1551 1553 1554 1555 1556 1556 1556 1557 1556 1557 1556 1557 1557 1557 1558 1558 1558 1558 1559 1559 1559 1559 1560 1560 1559 1560 1560
1519 1521 1524 1526 1528 1531 1533 1535 1537 1538 1540 1541 1543 1545 1546 1548 1550 1550 1552 1552 1553 1554 1554 1554 1554 1554 1554 1554 1554 1555 1555 1555 1555 1555 1555 1555 1555 1556 1556 1556 1557 1556 1556
1517 1520 1522 1525 1527 1529 1531 1533 1535 1537 1538 1540 1542 1543 1544 1546 1547 1548 1549 1550 1550 1551 1551 1551 1551 1552 1552 1552 1552 1552 1552 1552 1552 1552 1551 1551 1551 1551 1552 1552 1553 1554 1553
1516 1518 1521 1523 1525 1528 1530 1532 1534 1535 1537 1538 1540 1541 1542 1543 1545 1546 1547 1547 1548 1548 1548 1549 1549 1549 1549 1549 1549 1549 1549 1549 1549 1549 1548 1548 1548 1548 1548 1548 1549 1549 1550
1514 1517 1520 1522 1524 1526 1528 1530 1532 1534 1535 1537 1538 1539 1541 1542 1543 1544 1544 1545 1545 1546 1546 1546 1546 1546 1547 1547 1547 1547 1547 1547 1547 1546 1546 1545 1545 1545 1545 1545 1545 1546 1546
1512 1515 1518 1520 1523 1525 1527 1529 1531 1532 1534 1535 1536 1538 1539 1540 1541 1542 1542 1543 1543 1544 1544 1544 1544 1544 1545 1545 1545 1545 1545 1544 1544 1544 1543 1543 1543 1542 1542 1542 1542 1542 1542
1511 1513 1516 1518 1521 1523 1525 1527 1529 1531 1532 1534 1535 1536 1537 1538 1539 1540 1540 1541 1541 1541 1541 1542 1542 1542 1542 1542 1542 1542 1542 1542 1542 1541 1541 1541 1540 1540 1539 1539 1539 1539 1539
1509 1512 1514 1516 1519 1521 1523 1525 1527 1529 1531 1532 1533 1534 1535 1536 1537 1538 1538 1539 1539 1539 1539 1540 1540 1540 1540 1540 1540 1540 1540 1540 1540 1539 1539 1539 1538 1538 1537 1537 1537 1537 1537
1507 1509 1511 1514 1516 1518 1521 1523 1525 1527 1528 1530 1532 1533 1534 1534 1535 1536 1537 1537 1537 1538 1538 1538 1538 1538 1538 1538 1538 1538 1538 1538 1538 1538 1537 1537 1536 1536 1536 1536 1535 1535 1535
1505 1507 1509 1511 1513 1516 1518 1520 1523 1524 1526 1528 1530 1531 1532 1532 1533 1534 1535 1535 1536 1536 1536 1536 1536 1536 1537 1537 1537 1537 1537 1537 1536 1536 1536 1535 1535 1534 1534 1534 1533 1533 1533
1503 1505 1506 1508 1510 1513 1515 1518 1519 1521 1523 1525 1527 1528 1529 1530 1531 1532 1533 1533 1534 1534 1534 1534 1535 1535 1535 1535 1535 1535 1535 1535 1535 1535 1535 1535 1534 1533 1532 1532 1532 1531 1531
1500 1502 1504 1506 1507 1510 1512 1514 1516 1518 1520 1522 1523 1525 1526 1528 1529 1529 1530 1531 1532 1532 1533 1533 1533 1533 1533 1534 1534 1534 1534 1534 1534 1534 1533 1533 1532 1532 1531 1531 1531 1530 1530
1498 1499 1501 1503 1505 1507 1509 1511 1513 1515 1517 1519 1520 1522 1524 1525 1526 1527 1528 1529 1530 1530 1531 1531 1531 1532 1532 1532 1532 1533 1533 1533 1533 1533 1532 1532 1531 1531 1530 1530 1530 1529 1529
1496 1497 1498 1500 1502 1503 1506 1508 1510 1512 1514 1516 1518 1519 1521 1523 1524 1525 1526 1527 1528 1529 1529 1529 1529 1530 1530 1530 1531 1531 1532 1532 1532 1531 1531 1530 1530 1529 1529 1529 1529 1528 1528
1494 1495 1496 1498 1499 1501 1503 1506 1508 1510 1512 1513 1515 1516 1518 1520 1521 1522 1523 1524 1525 1526 1527 1527 1527 1527 1528 1528 1529 1529 1530 1530 1530 1530 1530 1529 1528 1528 1528 1528 1528 1527 1527
1494 1494 1495 1496 1497 1499 1501 1503 1505 1507 1509 1511 1512 1513 1515 1517 1518 1520 1521 1522 1523 1524 1524 1525 1525 1525 1525 1526 1526 1527 1527 1528 1528 1528 1528 1527 1527 1527 1526 1526 1526 1526 1526
1494 1495 1495 1495 1496 1498 1500 1502 1503 1504 1506 1508 1509 1510 1512 1513 1515 1516 1517 1519 1520 1521 1522 1523 1523 1523 1523 1523 1524 1524 1525 1525 1526 1526 1526 1525 1525 1525 1525 1525 1525 1525 1525
1494 1495 1495 1495 1496 1496 1498 1499 1501 1502 1504 1505 1506 1507 1508 1510 1511 1513 1515 1516 1517 1518 1518 1519 1520 1520 1521 1521 1521 1521 1522 1523 1523 1523 1523 1524 1524 1524 1523 1523 1523 1523 1524
1494 1494 1494 1495 1496 1496 1496 1498 1499 1500 1501 1502 1504 1505 1506 1507 1509 1510 1512 1513 1514 1515 1516 1517 1517 1518 1518 1518 1519 1519 1519 1520 1521 1521 1522 1522 1522 1522 1522 1522 1522 1522 1522
1494 1493 1494 1494 1494 1495 1495 1496 1497 1498 1499 1500 1501 1502 1503 1505 1506 1507 1508 1509 1511 1511 1512 1513 1514 1514 1515 1515 1516 1516 1517 1517 1518 1519 1520 1519 1519 1520 1520 1520 1520 1520 1520